Location: Ch�tillon
(48.8024°N, 2.2935°E)
Time: 16:52:09
(UTC+00:00)

XW-2A - Pass Details

Date: 05 July 2022
Orbit: 396 x 406 km, 97.2° (Epoch: 10 August)

Event Time Altitude Azimuth Distance (km) Brightness Sun altitude
Exits shadow 20:52:42 - 176° (S) 1,773 ? -7.7°
Reaches altitude 10° 20:53:29 10° 178° (S) 1,440 ? -7.8°
Maximum altitude 20:56:31 60° 259° (W) 463 ? -8.1°
Drops below altitude 10° 20:59:35 10° 340° (NNW) 1,454 ? -8.4°
Sets 21:01:35 0° 345° (NNW) 2,318 ? -8.6°
